logo
Search for airport 
image banner adimage banner adimage banner ad
image banner ad

FABEES - Beestekraal

Located in , South Africa

ICAO - , IATA -

Data provided by Airmate  

General information

Coordinates: S25°18'12" E27°32'4"
Elevation is 3257 feet MSL.
 
View others Airports in North-West

Operational data

Special qualification required
Current time UTC:
Current local time:
Weather at : - ( 0 km )
METAR: TXKF 150955Z 08005KT 9999 FEW030 14/12 Q1023
View NOTAMs / SUP AIP / TFR affecting this airport [VIEW]
Communications frequencies: [VIEW]

Runways:

RWY identifierQFULength (ft)Width (ft)SurfaceLDA (ft)
0890°141133SAND
26270°141133SAND

Airport contact information

Address: South Africa

Satellite view of FABEES